DLH693 LOWW-EHAM

Flight info

Callsign DLH693
Flight time N/A
Altitude 32000
Route BUWUT DCT DITIS DCT RAPET DCT MASEK DCT MAPOX DCT ABILU Z850 HMM DCT NORKU
Aircraft A320/M-SDE3FGHIRWY/LB1

Departure

Time 2026-04-24 15:54
Airport Vienna International Airport (LOWW)

Arrival

Time N/A
Airport Amsterdam Airport Schiphol (EHAM)
Time Latitude Longitude Altitude Speed Heading
2026-04-24 15:02 48.11876 16.56814 611 ft 0 kts 206°
2026-04-24 15:45 48.11877 16.56815 611 ft 1 kts 206°
2026-04-24 15:46 48.11890 16.56824 611 ft 3 kts 201°
2026-04-24 15:46 48.11909 16.56832 611 ft 3 kts 186°
2026-04-24 15:46 48.11928 16.56830 611 ft 3 kts 151°
2026-04-24 15:46 48.11938 16.56818 611 ft 1 kts 116°
2026-04-24 15:47 48.11938 16.56817 611 ft 0 kts 116°
2026-04-24 15:49 48.11938 16.56818 611 ft 1 kts 116°
2026-04-24 15:49 48.11928 16.56850 611 ft 6 kts 116°
2026-04-24 15:49 48.11909 16.56907 611 ft 7 kts 116°
2026-04-24 15:49 48.11887 16.56975 611 ft 8 kts 116°
2026-04-24 15:50 48.11862 16.57053 611 ft 9 kts 116°
2026-04-24 15:50 48.11835 16.57141 611 ft 10 kts 110°
2026-04-24 15:50 48.11817 16.57247 611 ft 11 kts 103°
2026-04-24 15:50 48.11781 16.57351 611 ft 12 kts 137°
2026-04-24 15:51 48.11701 16.57396 611 ft 13 kts 166°
2026-04-24 15:51 48.11610 16.57431 611 ft 14 kts 165°
2026-04-24 15:51 48.11512 16.57465 611 ft 15 kts 178°
2026-04-24 15:51 48.11412 16.57409 611 ft 16 kts 206°
2026-04-24 15:52 48.11308 16.57333 611 ft 17 kts 206°
2026-04-24 15:52 48.11196 16.57253 611 ft 18 kts 205°
2026-04-24 15:52 48.11087 16.57172 611 ft 15 kts 210°
2026-04-24 15:52 48.11052 16.57116 611 ft 6 kts 282°
2026-04-24 15:53 48.11063 16.57076 611 ft 0 kts 295°
2026-04-24 15:53 48.11063 16.57075 611 ft 0 kts 295°
2026-04-24 15:53 48.11064 16.57072 611 ft 3 kts 295°
2026-04-24 15:53 48.11125 16.56881 611 ft 46 kts 296°
2026-04-24 15:54 48.11343 16.56218 611 ft 96 kts 295°
2026-04-24 15:54 48.11703 16.55108 611 ft 140 kts 296°
2026-04-24 15:54 48.12184 16.53626 767 ft 166 kts 294°
2026-04-24 15:54 48.12669 16.52143 1536 ft 156 kts 296°
2026-04-24 15:55 48.13095 16.50664 2188 ft 155 kts 282°
2026-04-24 15:55 48.13048 16.49052 2831 ft 155 kts 255°
2026-04-24 15:55 48.12738 16.47457 3293 ft 167 kts 268°
2026-04-24 15:55 48.12815 16.45601 3499 ft 194 kts 279°
2026-04-24 15:56 48.13030 16.43460 3632 ft 229 kts 279°
2026-04-24 15:56 48.13268 16.40977 4252 ft 247 kts 278°
2026-04-24 15:56 48.13478 16.38408 4773 ft 249 kts 277°
2026-04-24 15:56 48.13651 16.35807 5417 ft 248 kts 276°
2026-04-24 15:57 48.13797 16.33219 6433 ft 251 kts 276°
2026-04-24 15:57 48.13928 16.30598 7424 ft 255 kts 276°
2026-04-24 15:57 48.14011 16.28835 8048 ft 258 kts 276°
2026-04-24 15:57 48.14175 16.25216 9261 ft 263 kts 278°
2026-04-24 15:58 48.14619 16.22560 10092 ft 264 kts 296°
2026-04-24 15:58 48.15623 16.20284 10982 ft 264 kts 314°
2026-04-24 15:58 48.17099 16.18599 11672 ft 273 kts 332°
2026-04-24 15:58 48.18881 16.17253 11902 ft 300 kts 333°
2026-04-24 15:59 48.20836 16.15808 12072 ft 325 kts 333°
2026-04-24 15:59 48.22904 16.14294 12677 ft 334 kts 333°
2026-04-24 15:59 48.25010 16.12756 13448 ft 339 kts 333°
2026-04-24 15:59 48.27145 16.11191 14197 ft 343 kts 333°
2026-04-24 16:00 48.29297 16.09607 14901 ft 347 kts 333°
2026-04-24 16:00 48.31478 16.07992 15582 ft 352 kts 333°
2026-04-24 16:00 48.33690 16.06346 16235 ft 356 kts 333°
2026-04-24 16:00 48.35922 16.04680 16865 ft 360 kts 334°
2026-04-24 16:01 48.38178 16.02994 17488 ft 364 kts 334°
2026-04-24 16:01 48.40463 16.01286 18082 ft 368 kts 334°
2026-04-24 16:01 48.42763 15.99569 18663 ft 372 kts 334°
2026-04-24 16:01 48.45096 15.97827 19233 ft 375 kts 333°
2026-04-24 16:02 48.47447 15.96068 19779 ft 379 kts 333°
2026-04-24 16:02 48.49818 15.94289 20322 ft 382 kts 333°
2026-04-24 16:02 48.52209 15.92494 20850 ft 385 kts 333°
2026-04-24 16:02 48.54602 15.90613 21375 ft 388 kts 328°
2026-04-24 16:03 48.56776 15.88192 21926 ft 390 kts 318°
2026-04-24 16:03 48.58601 15.85248 22325 ft 396 kts 308°
2026-04-24 16:03 48.60210 15.81742 22863 ft 398 kts 305°
2026-04-24 16:03 48.61774 15.78270 23347 ft 401 kts 305°
2026-04-24 16:04 48.63352 15.74771 23820 ft 404 kts 305°
2026-04-24 16:04 48.64941 15.71245 24287 ft 407 kts 305°
2026-04-24 16:04 48.66539 15.67692 24740 ft 410 kts 305°
2026-04-24 16:04 48.68148 15.64113 25186 ft 413 kts 305°
2026-04-24 16:05 48.71221 15.56720 26056 ft 418 kts 301°
2026-04-24 16:05 48.72638 15.52863 26424 ft 420 kts 301°
2026-04-24 16:06 48.75492 15.45090 27150 ft 425 kts 301°
2026-04-24 16:06 48.76929 15.41167 27499 ft 427 kts 301°
2026-04-24 16:06 48.79809 15.33256 28274 ft 429 kts 301°
2026-04-24 16:07 48.81400 15.29453 28868 ft 423 kts 308°
2026-04-24 16:07 48.83110 15.25840 29417 ft 421 kts 308°
2026-04-24 16:07 48.86517 15.18616 30328 ft 420 kts 308°
2026-04-24 16:08 48.88220 15.15007 30813 ft 419 kts 308°
2026-04-24 16:08 48.91613 15.07859 31794 ft 415 kts 309°
2026-04-24 16:09 48.95055 15.00828 32064 ft 413 kts 309°
2026-04-24 16:09 48.96778 14.97331 32074 ft 412 kts 309°
2026-04-24 16:09 48.99645 14.91487 32072 ft 411 kts 309°
2026-04-24 16:11 49.08120 14.74004 32077 ft 411 kts 308°
2026-04-24 16:11 49.11534 14.66923 32084 ft 411 kts 308°
2026-04-24 16:12 49.16612 14.56363 32092 ft 411 kts 308°
2026-04-24 16:13 49.21671 14.45803 32099 ft 410 kts 308°
2026-04-24 16:14 49.28393 14.31697 32107 ft 410 kts 308°
2026-04-24 16:14 49.33422 14.21101 32110 ft 409 kts 308°
2026-04-24 16:15 49.38436 14.10513 32120 ft 408 kts 308°
2026-04-24 16:16 49.43417 13.99919 32122 ft 408 kts 307°
2026-04-24 16:17 49.51639 13.82364 32119 ft 408 kts 307°
2026-04-24 16:18 49.58323 13.68017 32121 ft 408 kts 307°
2026-04-24 16:19 49.63275 13.57326 32115 ft 409 kts 307°
2026-04-24 16:20 49.68218 13.46601 32118 ft 409 kts 307°
2026-04-24 16:20 49.73160 13.35851 32114 ft 410 kts 307°
2026-04-24 16:21 49.78104 13.25065 32114 ft 410 kts 306°
2026-04-24 16:22 49.81415 13.17796 32115 ft 410 kts 306°
2026-04-24 16:22 49.86359 13.06944 32114 ft 411 kts 306°
2026-04-24 16:23 49.89646 12.99677 32112 ft 412 kts 306°
2026-04-24 16:24 49.94579 12.88750 32113 ft 412 kts 306°
2026-04-24 16:24 49.97871 12.81452 32117 ft 412 kts 306°
2026-04-24 16:25 50.01153 12.74144 32126 ft 411 kts 305°
2026-04-24 16:25 50.04400 12.66873 32135 ft 408 kts 305°
2026-04-24 16:26 50.09256 12.55959 32123 ft 409 kts 304°
2026-04-24 16:27 50.14127 12.45017 32119 ft 410 kts 304°
2026-04-24 16:27 50.17373 12.37691 32119 ft 411 kts 304°
2026-04-24 16:28 50.19922 12.29757 32122 ft 412 kts 289°
2026-04-24 16:28 50.22596 12.16987 32125 ft 413 kts 289°
2026-04-24 16:29 50.24380 12.08459 32133 ft 412 kts 289°
2026-04-24 16:30 50.27904 11.91392 32138 ft 413 kts 288°
2026-04-24 16:30 50.29665 11.82853 32148 ft 412 kts 289°
2026-04-24 16:31 50.31424 11.74308 32150 ft 412 kts 288°
2026-04-24 16:31 50.33164 11.65765 32151 ft 412 kts 288°
2026-04-24 16:32 50.34902 11.57212 32152 ft 412 kts 288°
2026-04-24 16:32 50.36626 11.48679 32156 ft 411 kts 288°
2026-04-24 16:33 50.38342 11.40149 32154 ft 410 kts 288°
2026-04-24 16:33 50.40054 11.31617 32153 ft 410 kts 288°
2026-04-24 16:34 50.41757 11.23096 32156 ft 409 kts 287°
2026-04-24 16:34 50.43449 11.14566 32154 ft 409 kts 287°
2026-04-24 16:35 50.45134 11.06042 32152 ft 409 kts 287°
2026-04-24 16:35 50.46812 10.97501 32151 ft 409 kts 287°
2026-04-24 16:36 50.48487 10.88978 32151 ft 409 kts 287°
2026-04-24 16:36 50.50155 10.80438 32152 ft 409 kts 287°
2026-04-24 16:37 50.51820 10.71895 32152 ft 409 kts 287°
2026-04-24 16:37 50.53480 10.63347 32152 ft 409 kts 287°
2026-04-24 16:38 50.55129 10.54782 32146 ft 410 kts 286°
2026-04-24 16:38 50.56774 10.46189 32148 ft 410 kts 286°
2026-04-24 16:39 50.58410 10.37597 32150 ft 410 kts 286°
2026-04-24 16:39 50.60052 10.29005 32153 ft 410 kts 286°
2026-04-24 16:40 50.61694 10.20348 32154 ft 410 kts 286°
2026-04-24 16:40 50.63302 10.11787 32156 ft 410 kts 286°
2026-04-24 16:41 50.64912 10.03162 32157 ft 410 kts 286°
2026-04-24 16:41 50.66518 9.94539 32156 ft 410 kts 285°
2026-04-24 16:42 50.67855 9.87351 32157 ft 410 kts 285°
2026-04-24 16:42 50.69457 9.78705 32163 ft 410 kts 285°
2026-04-24 16:43 50.71044 9.70074 32166 ft 409 kts 285°
2026-04-24 16:43 50.72801 9.61526 32170 ft 409 kts 293°
2026-04-24 16:44 50.75957 9.54016 32157 ft 415 kts 307°
2026-04-24 16:44 50.79622 9.47001 32172 ft 413 kts 307°
2026-04-24 16:45 50.83278 9.39990 32175 ft 413 kts 307°
2026-04-24 16:45 50.86950 9.32926 32173 ft 413 kts 307°
2026-04-24 16:46 50.90583 9.25892 32175 ft 412 kts 306°
2026-04-24 16:46 50.94210 9.18852 32166 ft 412 kts 306°
2026-04-24 16:47 50.97832 9.11809 32167 ft 412 kts 306°
2026-04-24 16:47 51.01434 9.04795 32168 ft 412 kts 306°
2026-04-24 16:48 51.05075 8.97690 32169 ft 412 kts 306°
2026-04-24 16:48 51.08664 8.90652 32172 ft 412 kts 306°
2026-04-24 16:49 51.12269 8.83548 32180 ft 412 kts 305°
2026-04-24 16:49 51.15190 8.75811 32184 ft 407 kts 295°
2026-04-24 16:50 51.17803 8.67787 32180 ft 407 kts 294°
2026-04-24 16:50 51.20405 8.59766 32185 ft 407 kts 294°
2026-04-24 16:51 51.23022 8.51683 32193 ft 407 kts 294°
2026-04-24 16:51 51.25599 8.43703 32198 ft 407 kts 294°
2026-04-24 16:52 51.28185 8.35664 32205 ft 406 kts 294°
2026-04-24 16:52 51.30765 8.27620 32205 ft 406 kts 294°
2026-04-24 16:53 51.33338 8.19586 32211 ft 406 kts 294°
2026-04-24 16:53 51.35896 8.11546 32212 ft 405 kts 293°
2026-04-24 16:54 51.38441 8.03500 32217 ft 405 kts 293°
2026-04-24 16:54 51.41622 7.96031 32205 ft 415 kts 310°
2026-04-24 16:55 51.43844 7.93009 32212 ft 421 kts 321°
2026-04-24 16:55 51.46360 7.90600 32202 ft 423 kts 326°
2026-04-24 16:55 51.51908 7.87113 32196 ft 434 kts 338°
2026-04-24 16:56 51.57693 7.84351 32220 ft 433 kts 338°
2026-04-24 16:56 51.63468 7.81600 32226 ft 432 kts 338°
2026-04-24 16:57 51.69228 7.78814 32229 ft 432 kts 338°
2026-04-24 16:57 51.74980 7.76026 32226 ft 432 kts 338°
2026-04-24 16:58 51.80730 7.73228 32222 ft 431 kts 336°
2026-04-24 16:58 51.85944 7.68860 32220 ft 415 kts 317°
2026-04-24 16:59 51.89957 7.62242 32218 ft 406 kts 304°
2026-04-24 17:00 51.95284 7.51460 32188 ft 410 kts 304°
2026-04-24 17:00 52.00628 7.40615 32201 ft 410 kts 304°
2026-04-24 17:01 52.05946 7.29762 32208 ft 409 kts 304°
2026-04-24 17:02 52.09448 7.22606 32198 ft 391 kts 304°
2026-04-24 17:02 52.11134 7.19161 32054 ft 388 kts 303°
2026-04-24 17:02 52.12804 7.15733 31657 ft 384 kts 303°
2026-04-24 17:02 52.14457 7.12332 31128 ft 380 kts 303°
2026-04-24 17:03 52.17709 7.05620 30033 ft 374 kts 303°
2026-04-24 17:03 52.19317 7.02294 29489 ft 371 kts 304°
2026-04-24 17:03 52.20910 6.98999 28948 ft 369 kts 304°
2026-04-24 17:04 52.22513 6.95690 27935 ft 378 kts 304°
2026-04-24 17:04 52.25807 6.89090 26940 ft 369 kts 306°
2026-04-24 17:04 52.27427 6.85888 26460 ft 364 kts 306°
2026-04-24 17:05 52.29026 6.82715 25984 ft 359 kts 306°
2026-04-24 17:05 52.30607 6.79570 25514 ft 355 kts 305°
2026-04-24 17:05 52.33694 6.73387 24596 ft 347 kts 306°
2026-04-24 17:06 52.35213 6.70335 24140 ft 343 kts 306°
2026-04-24 17:06 52.38190 6.64322 23240 ft 336 kts 306°
2026-04-24 17:06 52.39654 6.61360 22798 ft 333 kts 306°
2026-04-24 17:07 52.40616 6.59409 22507 ft 331 kts 306°
2026-04-24 17:07 52.42537 6.55510 21933 ft 327 kts 306°
2026-04-24 17:07 52.45333 6.49732 21099 ft 319 kts 301°
2026-04-24 17:08 52.46990 6.43152 20262 ft 310 kts 279°
2026-04-24 17:08 52.47230 6.39662 19853 ft 307 kts 274°
2026-04-24 17:08 52.47405 6.36187 19450 ft 305 kts 274°
2026-04-24 17:09 52.47742 6.29308 18651 ft 301 kts 274°
2026-04-24 17:09 52.48078 6.22504 17860 ft 297 kts 274°
2026-04-24 17:10 52.48242 6.19134 17468 ft 296 kts 274°
2026-04-24 17:10 52.48719 6.09106 16299 ft 292 kts 274°
2026-04-24 17:11 52.49195 5.99201 15144 ft 289 kts 275°
2026-04-24 17:12 52.49958 5.82917 13276 ft 284 kts 275°